TimeCDT,TemperatureF,Dew PointF,Humidity,Sea Level PressureIn,VisibilityMPH,Wind Direction,Wind SpeedMPH,Gust SpeedMPH,PrecipitationIn,Events,Conditions,WindDirDegrees,DateUTC
12:51 AM,79.0,62.1,56,29.96,10.0,SSE,4.6,-,N/A,,Clear,160,2013-08-23 05:51:00
1:51 AM,75.0,60.1,60,29.96,10.0,Calm,Calm,-,N/A,,Clear,0,2013-08-23 06:51:00
2:51 AM,73.9,60.1,62,29.96,10.0,Calm,Calm,-,N/A,,Clear,0,2013-08-23 07:51:00
3:51 AM,73.0,61.0,66,29.96,10.0,South,3.5,-,N/A,,Clear,190,2013-08-23 08:51:00
4:51 AM,73.0,61.0,66,29.96,10.0,Calm,Calm,-,N/A,,Clear,0,2013-08-23 09:51:00
5:51 AM,72.0,61.0,68,29.97,10.0,Calm,Calm,-,N/A,,Clear,0,2013-08-23 10:51:00
6:51 AM,70.0,61.0,73,29.98,10.0,Calm,Calm,-,N/A,,Clear,0,2013-08-23 11:51:00
7:51 AM,72.0,61.0,68,30.00,10.0,Calm,Calm,-,N/A,,Clear,0,2013-08-23 12:51:00
8:51 AM,77.0,64.0,64,30.01,10.0,South,5.8,-,N/A,,Clear,190,2013-08-23 13:51:00
9:51 AM,84.0,66.9,56,30.00,10.0,SSW,11.5,-,N/A,,Clear,210,2013-08-23 14:51:00
10:51 AM,88.0,64.9,46,30.01,10.0,Variable,4.6,-,N/A,,Clear,0,2013-08-23 15:51:00
11:51 AM,90.0,63.0,40,30.00,10.0,Variable,6.9,16.1,N/A,,Partly Cloudy,0,2013-08-23 16:51:00
12:51 PM,93.0,63.0,37,29.97,10.0,ESE,11.5,19.6,N/A,,Partly Cloudy,120,2013-08-23 17:51:00
1:51 PM,91.9,61.0,35,29.96,10.0,SE,9.2,-,N/A,,Mostly Cloudy,140,2013-08-23 18:51:00
2:51 PM,91.0,62.1,38,29.93,10.0,North,3.5,-,0.00,Rain,Light Rain,350,2013-08-23 19:51:00
3:06 PM,87.8,64.4,46,30.01,10.0,WSW,23.0,26.5,N/A,Thunderstorm,Mostly Cloudy,250,2013-08-23 20:06:00
3:51 PM,79.0,64.9,62,29.95,2.0,SSW,11.5,25.3,0.10,Rain-Thunderstorm,Heavy Rain,210,2013-08-23 20:51:00
4:01 PM,75.2,64.4,69,30.02,5.0,South,18.4,41.4,0.02,Rain-Thunderstorm,Rain,170,2013-08-23 21:01:00
4:04 PM,73.4,66.2,78,30.02,1.8,South,17.3,41.4,0.03,Rain-Thunderstorm,Rain,170,2013-08-23 21:04:00
4:11 PM,73.4,66.2,78,30.02,0.8,SSE,23.0,35.7,0.09,Rain-Thunderstorm,Heavy Rain,160,2013-08-23 21:11:00
4:28 PM,71.6,66.2,83,29.99,2.5,SW,16.1,26.5,0.42,Rain-Thunderstorm,Light Rain,220,2013-08-23 21:28:00
4:35 PM,75.2,66.2,73,30.01,6.0,SW,16.1,-,0.46,Rain-Thunderstorm,Rain,220,2013-08-23 21:35:00
4:51 PM,75.0,66.0,73,29.96,9.0,Variable,3.5,-,0.48,Rain-Thunderstorm,Light Rain,0,2013-08-23 21:51:00
5:13 PM,73.4,68.0,83,30.02,10.0,South,15.0,24.2,0.00,Rain-Thunderstorm,Light Rain,190,2013-08-23 22:13:00
5:51 PM,73.0,66.9,81,29.93,10.0,SW,10.4,-,0.00,,Clear,220,2013-08-23 22:51:00
6:51 PM,73.0,69.1,87,29.94,10.0,Calm,Calm,-,0.00,Rain,Light Rain,0,2013-08-23 23:51:00
7:51 PM,73.9,68.0,82,29.95,10.0,SW,3.5,-,0.00,,Clear,220,2013-08-24 00:51:00
8:51 PM,73.0,68.0,84,29.95,10.0,SSW,3.5,-,N/A,,Clear,200,2013-08-24 01:51:00
9:51 PM,73.0,68.0,84,29.95,10.0,South,6.9,-,N/A,,Clear,180,2013-08-24 02:51:00
10:51 PM,73.0,69.1,87,29.96,10.0,Calm,Calm,-,N/A,,Clear,0,2013-08-24 03:51:00
11:51 PM,73.0,70.0,90,29.96,10.0,West,3.5,-,N/A,,Clear,260,2013-08-24 04:51:00